When you browse on this site, cookies collect data to enhance your experience and personalize the content and advertising you see.
Visit our Privacy Policy to learn more. By continuing to use the site, you agree to this use of cookies and data.
  • In Spain
  • List of Countries
  • For 7 days
  • Water Temperature
  • Satellite Maps
  • Weather Map
  • Weather Widgets
  • user-avatar
    Login

    Hourly Weather Plovdiv

    Today, 18 January, Friday

    Time Temperature Precipitation Wind Pressure Humidity
    00:00 +4°C° 0 mm 2 mps 739 mmHg 62%
    01:00 +3°C° 0 mm 2 mps 739 mmHg 62%
    02:00 +3°C° 0 mm 2 mps 739 mmHg 61%
    03:00 +3°C° 0 mm 2 mps 738 mmHg 61%
    04:00 +3°C° 0 mm 2 mps 738 mmHg 60%
    05:00 +3°C° 0 mm 2 mps 738 mmHg 60%
    06:00 +3°C° 0 mm 2 mps 738 mmHg 60%
    07:00 +3°C° 0 mm 2 mps 738 mmHg 59%
    08:00 +3°C° 0 mm 2 mps 738 mmHg 59%
    09:00 +6°C° 0 mm 1 mps 738 mmHg 57%
    10:00 +8°C° 0 mm 1 mps 738 mmHg 54%
    11:00 +10°C° 0 mm 1 mps 739 mmHg 51%
    12:00 +11°C° 0 mm 1 mps 738 mmHg 52%
    13:00 +12°C° 0 mm 1 mps 738 mmHg 52%
    14:00 +12°C° 0 mm 1 mps 738 mmHg 52%
    15:00 +11°C° 0 mm 1 mps 738 mmHg 57%
    16:00 +10°C° 0 mm 1 mps 738 mmHg 62%
    17:00 +8°C° 0 mm 1 mps 738 mmHg 67%
    18:00 +8°C° 0 mm 1 mps 738 mmHg 67%
    19:00 +7°C° 0 mm 1 mps 738 mmHg 68%
    20:00 +7°C° 0 mm 1 mps 738 mmHg 69%
    21:00 +7°C° 0 mm 1 mps 738 mmHg 69%
    22:00 +6°C° 0 mm 1 mps 738 mmHg 69%
    23:00 +6°C° 0 mm 1 mps 738 mmHg 69%

    Tomorrow, 19 January, Saturday

    Time Temperature Precipitation Wind Pressure Humidity
    00:00 +6°C° 0 mm 1 mps 738 mmHg 71%
    01:00 +6°C° 0 mm 1 mps 739 mmHg 72%
    02:00 +6°C° 0 mm 1 mps 739 mmHg 73%
    03:00 +6°C° 0 mm 1 mps 739 mmHg 74%
    04:00 +6°C° 0 mm 1 mps 739 mmHg 75%
    05:00 +6°C° 0 mm 1 mps 739 mmHg 76%
    06:00 +6°C° 0 mm 1 mps 739 mmHg 77%
    07:00 +5°C° 0 mm 1 mps 740 mmHg 78%
    08:00 +4°C° 0 mm 0 mps 740 mmHg 78%
    09:00 +7°C° 0 mm 1 mps 740 mmHg 75%
    10:00 +8°C° 0 mm 1 mps 740 mmHg 71%
    11:00 +9°C° 0 mm 1 mps 741 mmHg 67%
    12:00 +9°C° 0 mm 1 mps 740 mmHg 67%
    13:00 +9°C° 0 mm 2 mps 740 mmHg 66%
    14:00 +9°C° 0 mm 2 mps 740 mmHg 65%
    15:00 +8°C° 0 mm 2 mps 740 mmHg 68%
    16:00 +7°C° 0 mm 2 mps 740 mmHg 72%
    17:00 +7°C° 0 mm 2 mps 740 mmHg 76%
    18:00 +6°C° 0 mm 2 mps 740 mmHg 80%
    19:00 +6°C° 0 mm 1 mps 740 mmHg 85%
    20:00 +5°C° 0 mm 1 mps 741 mmHg 89%
    21:00 +5°C° 0 mm 1 mps 741 mmHg 91%
    22:00 +5°C° 0 mm 1 mps 741 mmHg 92%
    23:00 +5°C° 0 mm 1 mps 741 mmHg 94%

    Day after tomorrow, 20 January, Sunday

    Time Temperature Precipitation Wind Pressure Humidity
    00:00 +5°C° 0.1 mm 1 mps 741 mmHg 94%
    01:00 +5°C° 0.1 mm 1 mps 741 mmHg 94%
    02:00 +4°C° 0.1 mm 1 mps 740 mmHg 95%
    03:00 +4°C° 0.1 mm 1 mps 740 mmHg 95%
    04:00 +4°C° 0.1 mm 1 mps 740 mmHg 95%
    05:00 +4°C° 0.1 mm 1 mps 739 mmHg 96%
    06:00 +4°C° 0.1 mm 1 mps 739 mmHg 96%
    07:00 +4°C° 0.1 mm 1 mps 739 mmHg 96%
    08:00 +4°C° 0.1 mm 1 mps 739 mmHg 96%
    09:00 +5°C° 0.1 mm 1 mps 739 mmHg 93%
    10:00 +6°C° 0.1 mm 1 mps 739 mmHg 90%
    11:00 +6°C° 0.1 mm 2 mps 739 mmHg 87%
    12:00 +7°C° 0.1 mm 2 mps 738 mmHg 85%
    13:00 +8°C° 0.1 mm 2 mps 738 mmHg 83%
    14:00 +8°C° 0.1 mm 2 mps 737 mmHg 82%
    15:00 +8°C° 0.1 mm 2 mps 737 mmHg 85%
    16:00 +7°C° 0.1 mm 2 mps 737 mmHg 88%
    17:00 +7°C° 0.1 mm 1 mps 737 mmHg 91%
    18:00 +7°C° 0.1 mm 1 mps 737 mmHg 92%
    19:00 +7°C° 0.1 mm 1 mps 737 mmHg 93%
    20:00 +6°C° 0.1 mm 1 mps 737 mmHg 94%
    21:00 +6°C° 0.1 mm 1 mps 737 mmHg 93%
    22:00 +6°C° 0.1 mm 1 mps 737 mmHg 92%
    23:00 +6°C° 0.1 mm 1 mps 738 mmHg 91%

    21 January, Monday

    Time Temperature Precipitation Wind Pressure Humidity
    00:00 +6°C° 0.1 mm 1 mps 738 mmHg 90%
    01:00 +6°C° 0.1 mm 1 mps 738 mmHg 89%
    02:00 +6°C° 0.1 mm 1 mps 738 mmHg 87%
    03:00 +5°C° 0 mm 1 mps 738 mmHg 87%
    04:00 +5°C° 0 mm 1 mps 738 mmHg 86%
    05:00 +5°C° 0 mm 1 mps 738 mmHg 86%
    06:00 +4°C° 0 mm 1 mps 738 mmHg 85%
    07:00 +4°C° 0 mm 1 mps 738 mmHg 84%
    08:00 +4°C° 0 mm 1 mps 739 mmHg 84%
    09:00 +6°C° 0 mm 1 mps 739 mmHg 80%
    10:00 +7°C° 0 mm 1 mps 739 mmHg 75%
    11:00 +9°C° 0 mm 1 mps 740 mmHg 71%
    12:00 +9°C° 0 mm 1 mps 740 mmHg 70%
    13:00 +10°C° 0 mm 1 mps 740 mmHg 69%
    14:00 +10°C° 0 mm 1 mps 739 mmHg 68%
    15:00 +10°C° 0 mm 1 mps 740 mmHg 72%
    16:00 +9°C° 0 mm 1 mps 740 mmHg 75%
    17:00 +8°C° 0 mm 1 mps 740 mmHg 78%
    18:00 +8°C° 0 mm 1 mps 740 mmHg 80%
    19:00 +7°C° 0 mm 1 mps 741 mmHg 83%
    20:00 +6°C° 0 mm 1 mps 741 mmHg 86%
    21:00 +6°C° 0 mm 1 mps 741 mmHg 88%
    22:00 +6°C° 0 mm 1 mps 742 mmHg 90%
    23:00 +6°C° 0 mm 1 mps 742 mmHg 92%

    22 January, Tuesday

    Time Temperature Precipitation Wind Pressure Humidity
    00:00 +5°C° 0.1 mm 1 mps 742 mmHg 92%
    01:00 +4°C° 0.1 mm 2 mps 742 mmHg 93%
    02:00 +4°C° 0.1 mm 2 mps 742 mmHg 94%
    03:00 +4°C° 0.1 mm 2 mps 741 mmHg 94%
    04:00 +3°C° 0.1 mm 2 mps 741 mmHg 94%
    05:00 +3°C° 0.1 mm 2 mps 741 mmHg 94%
    06:00 +3°C° 0.1 mm 2 mps 741 mmHg 94%
    07:00 +3°C° 0.1 mm 2 mps 741 mmHg 94%
    08:00 +3°C° 0.1 mm 2 mps 741 mmHg 94%
    09:00 +3°C° 0 mm 2 mps 740 mmHg 92%
    10:00 +4°C° 0 mm 2 mps 740 mmHg 89%
    11:00 +4°C° 0 mm 2 mps 740 mmHg 87%
    12:00 +4°C° 0.1 mm 3 mps 739 mmHg 87%
    13:00 +4°C° 0.1 mm 3 mps 739 mmHg 86%
    14:00 +5°C° 0.1 mm 3 mps 738 mmHg 86%
    15:00 +4°C° 0.1 mm 3 mps 737 mmHg 87%
    16:00 +4°C° 0.1 mm 3 mps 737 mmHg 89%
    17:00 +4°C° 0.1 mm 3 mps 736 mmHg 91%
    18:00 +5°C° 0 mm 2 mps 736 mmHg 92%
    19:00 +5°C° 0 mm 2 mps 736 mmHg 92%
    20:00 +5°C° 0 mm 2 mps 735 mmHg 93%
    21:00 +5°C° 0.1 mm 2 mps 735 mmHg 94%
    22:00 +5°C° 0.1 mm 2 mps 735 mmHg 94%
    23:00 +5°C° 0.1 mm 2 mps 734 mmHg 94%

    23 January, Wednesday

    Time Temperature Precipitation Wind Pressure Humidity
    00:00 +5°C° 0.1 mm 2 mps 734 mmHg 95%
    01:00 +5°C° 0.1 mm 2 mps 733 mmHg 95%
    02:00 +6°C° 0.1 mm 1 mps 732 mmHg 95%
    03:00 +6°C° 0.1 mm 1 mps 732 mmHg 96%
    04:00 +6°C° 0.1 mm 1 mps 731 mmHg 96%
    05:00 +6°C° 0.1 mm 1 mps 731 mmHg 96%
    06:00 +6°C° 0 mm 1 mps 731 mmHg 96%
    07:00 +6°C° 0 mm 1 mps 730 mmHg 95%
    08:00 +6°C° 0 mm 1 mps 730 mmHg 95%
    09:00 +7°C° 0 mm 1 mps 730 mmHg 92%
    10:00 +8°C° 0 mm 1 mps 730 mmHg 90%
    11:00 +9°C° 0 mm 1 mps 730 mmHg 87%
    12:00 +9°C° 0.2 mm 1 mps 730 mmHg 87%
    13:00 +9°C° 0.2 mm 1 mps 729 mmHg 87%
    14:00 +9°C° 0.2 mm 1 mps 728 mmHg 86%
    15:00 +9°C° 0.1 mm 1 mps 728 mmHg 88%
    16:00 +7°C° 0.1 mm 0 mps 728 mmHg 89%
    17:00 +7°C° 0.1 mm 0 mps 728 mmHg 90%
    18:00 +7°C° 0 mm 0 mps 728 mmHg 90%
    19:00 +6°C° 0 mm 0 mps 728 mmHg 89%
    20:00 +7°C° 0 mm 1 mps 728 mmHg 89%
    21:00 +7°C° 0 mm 1 mps 728 mmHg 88%
    22:00 +6°C° 0 mm 1 mps 728 mmHg 88%
    23:00 +6°C° 0 mm 1 mps 729 mmHg 87%
    Show more